GW3550 Weather Reports


Display with metric or nautical units.
time (UTC)temp
F
wind
direction
speed
MPH
gust
MPH
rain 1hr
in
rain 24hr
in
rain mn
in
humidity
%
barometer
mb
20260508201716 72 27 1.0 3.0 0.00 0.00 0.00 59 1015.6
20260508201212 72 29 0.0 0.0 0.00 0.00 0.00 51 1015.5
20260508200709 71 217 0.0 0.0 0.00 0.00 0.00 55 1015.9
20260508200205 71 63 0.0 3.0 0.00 0.00 0.00 54 1015.9
20260508195701 71 225 0.0 2.0 0.00 0.00 0.00 55 1015.9
20260508195158 71 85 2.0 3.0 0.00 0.00 0.00 53 1016.2
20260508194654 72 176 1.0 1.0 0.00 0.00 0.00 54 1016.2
20260508194151 71 187 0.0 1.0 0.00 0.00 0.00 56 1016.3
20260508193648 70 239 1.0 2.0 0.00 0.00 0.00 53 1016.4
20260508193145 70 55 1.0 2.0 0.00 0.00 0.00 54 1016.3
20260508192642 71 290 0.0 2.0 0.00 0.00 0.00 52 1016.3
20260508192139 72 78 1.0 4.0 0.00 0.00 0.00 55 1016.8
20260508191636 73 29 2.0 3.0 0.00 0.00 0.00 50 1016.7
20260508191133 74 223 0.0 3.0 0.00 0.00 0.00 49 1016.7
20260508190630 74 250 0.0 1.0 0.00 0.00 0.00 54 1016.6
20260508190126 73 95 2.0 3.0 0.00 0.00 0.00 52 1016.9
20260508185623 73 49 0.0 1.0 0.00 0.00 0.00 52 1016.9
20260508185121 74 189 2.0 2.0 0.00 0.00 0.00 49 1017.1
20260508184618 73 192 0.0 1.0 0.00 0.00 0.00 54 1016.9
20260508184115 73 247 0.0 3.0 0.00 0.00 0.00 52 1017.1
20260508183611 73 223 0.0 1.0 0.00 0.00 0.00 53 1017.3
20260508183107 71 223 0.0 2.0 0.00 0.00 0.00 53 1017.3
20260508182604 71 188 0.0 4.0 0.00 0.00 0.00 55 1017.5
20260508182100 71 233 2.0 3.0 0.00 0.00 0.00 56 1017.0
20260508181555 72 174 1.0 2.0 0.00 0.00 0.00 56 1017.4
20260508181054 72 202 0.0 0.0 0.00 0.00 0.00 57 1017.5
20260508180550 72 66 1.0 3.0 0.00 0.00 0.00 55 1017.5
20260508180046 72 236 0.0 0.0 0.00 0.00 0.00 51 1017.7
20260508175543 73 188 1.0 3.0 0.00 0.00 0.00 53 1017.5
20260508175040 74 124 2.0 3.0 0.00 0.00 0.00 52 1017.8
20260508174538 72 220 1.0 2.0 0.00 0.00 0.00 53 1017.8
20260508174034 73 69 2.0 4.0 0.00 0.00 0.00 51 1017.8
20260508173531 74 200 0.0 3.0 0.00 0.00 0.00 52 1018.0
20260508173027 74 218 3.0 6.0 0.00 0.00 0.00 47 1018.3
20260508172524 74 251 1.0 6.0 0.00 0.00 0.00 52 1018.1
20260508172021 72 176 2.0 7.0 0.00 0.00 0.00 52 1018.2
20260508171518 71 11 1.0 3.0 0.00 0.00 0.00 55 1018.1
20260508171014 71 255 1.0 3.0 0.00 0.00 0.00 54 1018.1
20260508170511 71 235 0.0 1.0 0.00 0.00 0.00 58 1018.2
20260508170009 71 79 1.0 8.0 0.00 0.00 0.00 57 1018.3
20260508165506 70 186 2.0 3.0 0.00 0.00 0.00 55 1018.4
20260508165002 70 59 1.0 4.0 0.00 0.00 0.00 57 1018.6
20260508164459 70 203 0.0 2.0 0.00 0.00 0.00 54 1018.6
20260508163956 70 8 2.0 6.0 0.00 0.00 0.00 58 1018.7
20260508163454 71 82 0.0 3.0 0.00 0.00 0.00 62 1018.7
20260508162949 70 205 1.0 3.0 0.00 0.00 0.00 64 1018.8
20260508162447 72 136 2.0 3.0 0.00 0.00 0.00 59 1018.9
20260508161944 71 171 1.0 2.0 0.00 0.00 0.00 55 1019.2
20260508161441 70 211 0.0 3.0 0.00 0.00 0.00 58 1019.1
20260508160938 69 129 1.0 3.0 0.00 0.00 0.00 66 1019.3
20260508160437 68 57 2.0 4.0 0.00 0.00 0.00 64 1019.2
20260508155932 68 67 2.0 7.0 0.00 0.00 0.00 68 1019.1
20260508155430 68 179 0.0 4.0 0.00 0.00 0.00 69 1019.4
20260508154926 68 248 1.0 2.0 0.00 0.00 0.00 70 1019.5
20260508154424 68 192 3.0 8.0 0.00 0.00 0.00 67 1019.6
20260508153921 67 36 3.0 6.0 0.00 0.00 0.00 68 1019.5
20260508153418 69 59 1.0 3.0 0.00 0.00 0.00 66 1019.5
20260508152914 68 176 0.0 2.0 0.00 0.00 0.00 68 1019.6
20260508152411 67 161 1.0 6.0 0.00 0.00 0.00 71 1019.4
20260508151907 67 246 2.0 7.0 0.00 0.00 0.00 67 1019.7
20260508151404 64 65 1.0 7.0 0.00 0.00 0.00 73 1019.7
20260508150900 64 109 3.0 6.0 0.00 0.00 0.00 72 1019.8
20260508150357 63 165 0.0 2.0 0.00 0.00 0.00 71 1020.0
20260508145853 65 64 5.0 7.0 0.00 0.00 0.00 70 1019.7
20260508145349 63 32 1.0 2.0 0.00 0.00 0.00 73 1019.8
20260508144846 64 44 4.0 4.0 0.00 0.00 0.00 71 1019.8
20260508144344 63 101 2.0 3.0 0.00 0.00 0.00 73 1019.6
20260508143841 66 74 0.0 2.0 0.00 0.00 0.00 73 1019.7
20260508143338 64 76 0.0 2.0 0.00 0.00 0.00 75 1019.7
20260508142835 62 151 2.0 3.0 0.00 0.00 0.00 75 1019.5
20260508142332 62 203 1.0 2.0 0.00 0.00 0.00 76 1019.6
20260508141828 62 85 2.0 3.0 0.00 0.00 0.00 76 1019.4
20260508141326 62 121 3.0 4.0 0.00 0.00 0.00 74 1019.6
20260508140823 61 29 2.0 3.0 0.00 0.00 0.00 77 1019.6
20260508140320 60 70 2.0 4.0 0.00 0.00 0.00 77 1019.5
20260508135815 61 186 2.0 3.0 0.00 0.00 0.00 77 1019.6
20260508135312 61 123 1.0 1.0 0.00 0.00 0.00 79 1019.7
20260508134808 60 21 2.0 3.0 0.00 0.00 0.00 81 1020.1
20260508134305 60 122 2.0 2.0 0.00 0.00 0.00 80 1020.1
20260508133802 59 46 1.0 1.0 0.00 0.00 0.00 82 1020.0
20260508133259 59 168 0.0 3.0 0.00 0.00 0.00 81 1020.0
20260508132757 59 171 0.0 2.0 0.00 0.00 0.00 85 1020.2
20260508132254 60 52 2.0 2.0 0.00 0.00 0.00 81 1020.1
20260508131750 58 13 1.0 2.0 0.00 0.00 0.00 82 1019.9
20260508131246 57 19 2.0 4.0 0.00 0.00 0.00 82 1019.9
20260508130743 57 13 3.0 3.0 0.00 0.00 0.00 82 1020.0
20260508130240 57 45 3.0 4.0 0.00 0.00 0.00 84 1019.9
20260508125736 57 64 1.0 1.0 0.00 0.00 0.00 88 1019.8
20260508125232 57 11 1.0 1.0 0.00 0.00 0.00 88 1019.6
20260508124731 57 87 1.0 1.0 0.00 0.00 0.00 89 1020.0
20260508124227 57 81 1.0 2.0 0.00 0.00 0.00 88 1019.7
20260508123726 56 26 1.0 2.0 0.00 0.00 0.00 87 1019.6
20260508123223 56 26 0.0 0.0 0.00 0.00 0.00 86 1019.7
20260508122719 56 241 0.0 0.0 0.00 0.00 0.00 87 1019.7
20260508122216 57 253 0.0 0.0 0.00 0.00 0.00 85 1019.5
20260508121714 56 225 0.0 0.0 0.00 0.00 0.00 87 1019.2
20260508121212 57 239 0.0 0.0 0.00 0.00 0.00 88 1019.2
20260508120709 58 232 0.0 0.0 0.00 0.00 0.00 85 1019.3
20260508120207 57 220 0.0 0.0 0.00 0.00 0.00 88 1018.6
20260508115705 55 221 0.0 0.0 0.00 0.00 0.00 90 1018.5
20260508115202 54 220 0.0 0.0 0.00 0.00 0.00 91 1018.4
20260508114658 54 220 0.0 0.0 0.00 0.00 0.00 93 1018.5
20260508114155 53 220 0.0 0.0 0.00 0.00 0.00 95 1018.4
20260508113652 52 220 0.0 0.0 0.00 0.00 0.00 95 1018.5
20260508113150 51 220 0.0 0.0 0.00 0.00 0.00 97 1018.4
20260508112646 51 220 0.0 0.0 0.00 0.00 0.00 97 1018.5
20260508112143 50 221 0.0 0.0 0.00 0.00 0.00 98 1018.2
20260508111639 50 221 0.0 0.0 0.00 0.00 0.00 98 1018.0
20260508111137 50 221 0.0 0.0 0.00 0.00 0.00 98 1018.0
20260508110629 49 221 0.0 1.0 0.00 0.00 0.00 98 1018.1
20260508110125 49 221 0.0 0.0 0.00 0.00 0.00 98 1018.0
20260508105620 49 221 0.0 0.0 0.00 0.00 0.00 98 1018.0
20260508105117 49 221 0.0 0.0 0.00 0.00 0.00 98 1017.8
20260508104615 49 221 0.0 0.0 0.00 0.00 0.00 98 1017.5
20260508104111 49 221 0.0 0.0 0.00 0.00 0.00 98 1017.6
20260508103609 49 221 0.0 0.0 0.00 0.00 0.00 98 1017.0
20260508103106 50 222 0.0 0.0 0.00 0.00 0.00 98 1016.8
20260508102603 49 221 0.0 1.0 0.00 0.00 0.00 98 1016.9
20260508102101 50 221 0.0 0.0 0.00 0.00 0.00 98 1016.9
20260508101558 49 232 0.0 1.0 0.00 0.00 0.00 98 1016.7
20260508101055 49 248 1.0 2.0 0.00 0.00 0.00 98 1016.9
20260508100553 49 233 0.0 0.0 0.00 0.00 0.00 97 1016.7
20260508100050 50 228 0.0 0.0 0.00 0.00 0.00 97 1017.0
20260508095547 49 228 0.0 0.0 0.00 0.00 0.00 97 1016.8
20260508095044 49 228 0.0 0.0 0.00 0.00 0.00 97 1016.9
20260508094541 50 228 0.0 0.0 0.00 0.00 0.00 97 1016.7
20260508094038 50 228 0.0 0.0 0.00 0.00 0.00 97 1016.8
20260508093535 50 228 0.0 0.0 0.00 0.00 0.00 97 1016.7
20260508093032 50 228 0.0 0.0 0.00 0.00 0.00 97 1016.7
20260508092529 50 227 0.0 0.0 0.00 0.00 0.00 96 1016.8
20260508092029 50 226 0.0 0.0 0.00 0.00 0.00 96 1016.5
20260508091525 51 226 0.0 0.0 0.00 0.00 0.00 95 1016.5
20260508091022 51 243 0.0 1.0 0.00 0.00 0.00 95 1016.5
20260508090520 51 241 0.0 2.0 0.00 0.00 0.00 95 1016.3
20260508090016 51 245 1.0 1.0 0.00 0.00 0.00 95 1016.3
20260508085513 51 240 1.0 2.0 0.00 0.00 0.00 95 1016.6
20260508085010 51 220 0.0 2.0 0.00 0.00 0.00 95 1016.3
20260508084507 51 230 1.0 2.0 0.00 0.00 0.00 95 1016.4
20260508084004 51 235 1.0 2.0 0.00 0.00 0.00 95 1016.2
20260508083501 51 245 1.0 1.0 0.00 0.00 0.00 95 1016.1
20260508082956 52 242 0.0 2.0 0.00 0.00 0.00 94 1016.3
20260508082453 52 242 0.0 0.0 0.00 0.00 0.00 94 1016.0
20260508081951 52 245 0.0 0.0 0.00 0.00 0.00 95 1016.0
20260508081448 52 246 0.0 0.0 0.00 0.00 0.00 95 1016.2
20260508080944 52 252 0.0 0.0 0.00 0.00 0.00 95 1016.1
20260508080443 52 252 0.0 0.0 0.00 0.00 0.00 95 1016.3
20260508075939 52 228 0.0 0.0 0.00 0.00 0.00 95 1016.4
20260508075436 52 238 0.0 0.0 0.00 0.00 0.00 96 1016.3
20260508074933 52 239 0.0 0.0 0.00 0.00 0.00 96 1015.9
20260508074431 52 239 0.0 0.0 0.00 0.00 0.00 97 1016.5
20260508073928 52 241 0.0 0.0 0.00 0.00 0.00 98 1016.4
20260508073425 52 237 0.0 0.0 0.00 0.00 0.00 98 1016.2
20260508072922 52 247 0.0 0.0 0.00 0.00 0.00 98 1016.3
20260508072418 53 246 0.0 0.0 0.00 0.00 0.00 98 1016.6
20260508071916 53 247 0.0 0.0 0.00 0.00 0.00 98 1016.2
20260508071414 53 239 0.0 0.0 0.00 0.00 0.00 98 1016.5
20260508070911 52 216 0.0 0.0 0.00 0.00 0.00 98 1016.4
20260508070409 52 216 0.0 0.0 0.00 0.00 0.00 98 1016.4
20260508065906 53 216 0.0 0.0 0.00 0.00 0.00 98 1016.3
20260508065404 53 216 0.0 0.0 0.00 0.00 0.00 98 1016.4
20260508064902 53 215 0.0 1.0 0.00 0.00 0.00 98 1016.1
20260508064359 53 244 0.0 1.0 0.00 0.00 0.00 98 1016.3
20260508063857 53 214 0.0 2.0 0.00 0.00 0.00 98 1016.3
20260508063355 53 227 0.0 0.0 0.00 0.00 0.00 98 1016.3
20260508062851 53 235 0.0 0.0 0.00 0.00 0.00 98 1016.3
20260508062343 53 235 0.0 0.0 0.00 0.00 0.00 98 1016.6
20260508061840 53 239 0.0 0.0 0.00 0.00 0.00 98 1016.4
20260508061337 54 230 0.0 0.0 0.00 0.00 0.00 98 1016.8
20260508060833 54 230 0.0 0.0 0.00 0.00 0.00 98 1016.6
20260508060332 54 229 0.0 0.0 0.00 0.00 0.00 98 1016.6
20260508055826 54 249 1.0 1.0 0.00 0.00 0.00 98 1016.6
20260508055324 54 241 1.0 1.0 0.00 0.00 0.00 98 1016.6
20260508054821 54 230 1.0 1.0 0.00 0.00 0.00 98 1016.5
20260508054318 54 237 1.0 2.0 0.00 0.00 0.00 98 1016.5
20260508053815 54 240 0.0 0.0 0.00 0.00 0.00 98 1016.6
20260508053313 54 242 0.0 0.0 0.00 0.00 0.00 98 1016.5
20260508052810 53 240 0.0 0.0 0.00 0.00 0.00 98 1016.6
20260508052307 54 241 0.0 0.0 0.00 0.00 0.00 97 1016.6
20260508051803 54 235 0.0 0.0 0.00 0.00 0.00 97 1016.7
20260508051258 54 236 0.0 1.0 0.00 0.00 0.00 97 1017.0
20260508050755 54 221 0.0 1.0 0.00 0.00 0.00 97 1016.9
20260508050252 55 239 0.0 1.0 0.00 0.00 0.00 97 1016.4
20260508045748 55 230 0.0 2.0 0.00 0.00 0.00 97 1016.6
20260508045246 55 235 2.0 2.0 0.00 0.00 0.00 97 1016.3
20260508044743 54 237 1.0 1.0 0.00 0.00 0.00 97 1016.5
20260508044240 54 237 0.0 0.0 0.00 0.00 0.00 97 1016.5
20260508043736 55 237 0.0 1.0 0.00 0.00 0.00 96 1016.4
20260508043233 55 237 1.0 1.0 0.00 0.00 0.00 96 1016.7
20260508042730 55 237 1.0 1.0 0.00 0.00 0.00 96 1016.4
20260508042227 55 241 1.0 2.0 0.00 0.00 0.00 97 1016.6
20260508041724 55 219 1.0 2.0 0.00 0.00 0.00 97 1016.4
20260508041220 54 218 0.0 1.0 0.00 0.00 0.00 97 1016.4
20260508040717 55 218 1.0 1.0 0.00 0.00 0.00 97 1016.5
20260508040214 55 218 0.0 1.0 0.00 0.00 0.00 96 1016.5
20260508035711 55 218 0.0 0.0 0.00 1.73 1.73 96 1016.2
20260508035209 55 218 0.0 0.0 0.00 1.73 1.73 96 1016.4
20260508034705 55 218 0.0 0.0 0.00 1.73 1.73 95 1016.4
20260508034203 55 218 0.0 1.0 0.00 1.73 1.73 95 1016.5
20260508033659 55 218 0.0 1.0 0.00 1.73 1.73 95 1016.5
20260508033158 55 229 0.0 1.0 0.00 1.73 1.73 95 1016.3
20260508032655 55 233 0.0 1.0 0.00 1.73 1.73 95 1016.5
20260508032152 55 233 0.0 0.0 0.00 1.73 1.73 95 1016.3
20260508031649 55 233 0.0 0.0 0.00 1.73 1.73 94 1016.3
20260508031145 55 233 0.0 0.0 0.00 1.73 1.73 93 1016.4
20260508030641 56 233 0.0 0.0 0.00 1.73 1.73 92 1016.3
20260508030139 57 233 0.0 0.0 0.00 1.73 1.73 91 1016.5
20260508025635 57 233 0.0 0.0 0.00 1.73 1.73 90 1016.5
20260508025133 58 233 0.0 0.0 0.00 1.73 1.73 89 1016.3
20260508024628 58 235 0.0 1.0 0.00 1.73 1.73 89 1016.3
20260508024126 58 235 0.0 1.0 0.00 1.73 1.73 88 1016.4
20260508023622 58 239 1.0 1.0 0.00 1.73 1.73 88 1016.3
20260508023120 58 241 1.0 1.0 0.00 1.73 1.73 87 1016.4
20260508022615 59 241 0.0 0.0 0.00 1.73 1.73 87 1015.9
20260508022113 59 245 1.0 2.0 0.00 1.73 1.73 86 1016.1
20260508021608 58 237 1.0 2.0 0.00 1.73 1.73 87 1015.7
20260508021104 58 230 0.0 1.0 0.00 1.73 1.73 87 1015.9
20260508020602 59 240 0.0 0.0 0.00 1.73 1.73 87 1015.9
20260508020059 59 239 0.0 1.0 0.00 1.73 1.73 86 1015.8
20260508015557 59 239 1.0 2.0 0.00 1.73 1.73 85 1015.6
20260508015053 59 232 0.0 1.0 0.00 1.73 1.73 85 1015.8
20260508014550 59 215 0.0 1.0 0.00 1.73 1.73 85 1015.9
20260508014046 59 227 1.0 2.0 0.00 1.73 1.73 84 1015.6
20260508013542 60 245 0.0 1.0 0.00 1.73 1.73 84 1015.7
20260508013039 60 232 1.0 2.0 0.00 1.73 1.73 83 1015.6
20260508012537 60 232 1.0 2.0 0.00 1.73 1.73 82 1015.5
20260508012034 61 246 2.0 2.0 0.00 1.73 1.73 81 1015.6
20260508011532 61 238 1.0 2.0 0.00 1.73 1.73 80 1015.5
20260508011029 61 224 1.0 1.0 0.00 1.73 1.73 79 1015.3
20260508010526 62 223 1.0 3.0 0.00 1.73 1.73 78 1015.4
20260508010024 62 248 1.0 3.0 0.00 1.73 1.73 78 1015.3
20260508005520 62 250 2.0 3.0 0.00 1.73 1.73 77 1015.0
20260508005017 62 251 2.0 4.0 0.00 1.73 1.73 77 1014.9
20260508004513 62 244 2.0 3.0 0.00 1.73 1.73 76 1014.9
20260508004010 62 265 6.0 8.0 0.00 1.73 1.73 76 1015.0
20260508003506 62 242 3.0 3.0 0.00 1.73 1.73 76 1015.1
20260508003005 62 235 0.0 2.0 0.00 1.73 1.73 76 1015.1
20260508002459 63 258 1.0 3.0 0.00 1.73 1.73 76 1014.8
20260508001956 63 243 2.0 3.0 0.00 1.73 1.73 75 1014.9
20260508001453 63 220 1.0 2.0 0.00 1.73 1.73 75 1014.9
20260508000949 63 249 2.0 2.0 0.00 1.73 1.73 74 1014.8
20260508000445 63 193 0.0 3.0 0.00 1.73 1.73 74 1014.6
20260507235942 64 245 1.0 6.0 0.00 1.73 1.73 73 1014.7
20260507235439 64 245 4.0 6.0 0.00 1.73 1.73 73 1014.6
20260507234937 64 270 2.0 7.0 0.00 1.73 1.73 73 1014.6
20260507234433 64 231 2.0 3.0 0.00 1.73 1.73 73 1014.5
20260507233929 65 240 4.0 6.0 0.00 1.73 1.73 71 1014.5
20260507233426 65 216 1.0 6.0 0.00 1.73 1.73 71 1014.3
20260507232925 65 239 2.0 8.0 0.00 1.73 1.73 71 1014.2
20260507232421 66 243 1.0 8.0 0.00 1.73 1.73 70 1014.4
20260507231918 66 235 4.0 8.0 0.00 1.73 1.73 69 1014.1
20260507231414 66 259 2.0 11.0 0.00 1.73 1.73 70 1014.0
20260507230911 67 257 4.0 7.0 0.00 1.73 1.73 69 1014.3
20260507230409 67 213 6.0 11.0 0.00 1.73 1.73 71 1013.8
20260507225909 67 256 5.0 8.0 0.00 1.73 1.73 70 1014.0
20260507225405 67 248 7.0 9.0 0.00 1.73 1.73 71 1014.0
20260507224901 68 237 2.0 11.0 0.00 1.73 1.73 72 1014.1
20260507224357 67 268 5.0 11.0 0.00 1.73 1.73 71 1013.8
20260507223854 67 251 3.0 9.0 0.00 1.73 1.73 72 1013.7
20260507223350 68 207 5.0 11.0 0.00 1.73 1.73 72 1013.5
20260507222847 68 246 4.0 8.0 0.00 1.73 1.73 70 1013.6
20260507222343 68 246 3.0 14.0 0.00 1.73 1.73 70 1013.7
20260507221840 69 211 6.0 14.0 0.00 1.73 1.73 70 1013.4
20260507221337 69 242 7.0 8.0 0.00 1.73 1.73 69 1013.6
20260507220832 68 230 2.0 7.0 0.00 1.73 1.73 71 1013.6
20260507220331 68 270 5.0 8.0 0.00 1.73 1.73 72 1013.3
20260507215827 69 310 10.0 14.0 0.00 1.73 1.73 70 1013.4
20260507215324 69 262 7.0 10.0 0.00 1.73 1.73 71 1013.4
20260507214821 70 303 5.0 14.0 0.00 1.73 1.73 69 1013.1
20260507214319 70 281 5.0 11.0 0.00 1.73 1.73 69 1013.3
20260507213813 69 219 3.0 7.0 0.00 1.73 1.73 72 1013.2
20260507213311 70 225 5.0 9.0 0.00 1.73 1.73 72 1013.0
20260507212808 69 259 2.0 8.0 0.00 1.73 1.73 72 1013.2
20260507212306 70 216 7.0 14.0 0.00 1.73 1.73 71 1012.8
20260507211800 70 255 4.0 10.0 0.00 1.73 1.73 71 1013.1
20260507211257 70 272 4.0 8.0 0.00 1.73 1.73 70 1013.0
20260507210753 69 243 8.0 11.0 0.00 1.73 1.73 71 1012.9
20260507210251 70 230 8.0 15.0 0.00 1.73 1.73 70 1013.0
20260507205747 70 274 8.0 11.0 0.00 1.73 1.73 70 1013.0
20260507205244 69 246 5.0 13.0 0.00 1.73 1.73 73 1013.0
20260507204740 69 244 4.0 7.0 0.00 1.73 1.73 74 1013.3
20260507204238 69 258 4.0 15.0 0.00 1.73 1.73 74 1013.1
20260507203736 69 220 5.0 13.0 0.00 1.73 1.73 74 1012.8
20260507203233 70 239 9.0 11.0 0.00 1.73 1.73 72 1012.9
20260507202729 70 250 6.0 10.0 0.00 1.73 1.73 72 1012.9
20260507202225 71 225 11.0 14.0 0.00 1.73 1.73 72 1012.6